{"data":{"norad_id":40079,"epoch":"2026-05-24T17:14:50.106336Z","epoch_age_seconds":95980,"freshness":"FRESH","line1":"1 40079U 14038A   26144.71863549 -.00000024  00000+0  00000+0 0  9991","line2":"2 40079   0.0495 354.6484 0001888 130.2511 235.1175  5.00115675211875","mean_motion":5.00115675,"eccentricity":0.0001888,"inclination_deg":0.0495,"raan_deg":354.6484,"arg_perigee_deg":130.2511,"mean_anomaly_deg":235.1175,"bstar":0,"rev_number":21187,"period_min":287.93338661101,"perigee_km":8063.1598170918,"apogee_km":8068.6138804971,"semimajor_km":14444.023848794,"source":"CELESTRAK","updated_at":"2026-05-25T13:38:14.508914Z"}}